Regional Weather Roundup
Issued by NWS Northern Indiana

Home | Current Version | Previous Version | Text Only | Print | Product List | Glossary Off
Versions: 1 2 3 4 5 6 7 8 9 10 11 12 13 14 15 16 17 18 19 20 21 22 23 24 25 26 27 28 29 30 31 32 33 34 35 36 37 38 39 40 41 42 43 44 45 46 47 48 49 50

000
ASUS43 KIWX 280000
RWRIWX

KIWX WEATHER ROUNDUP
NATIONAL WEATHER SERVICE NORTHERN INDIANA
800 PM EDT TUE JUN 27 2017

NOTE: "FAIR" INDICATES FEW OR NO CLOUDS BELOW 12,000 FEET WITH NO
SIGNIFICANT WEATHER AND/OR OBSTRUCTIONS TO VISIBILITY.

* THESE STATIONS ARE NOT UNDER NWS QUALITY CONTROL. THEY ALSO MAY NOT
  REPORT WEATHER SUCH AS PRECIPITATION OR FOG.

INZ001>027-280100-
NORTHERN INDIANA

CITY           SKY/WX    TMP DP  RH WIND       PRES   REMARKS
GARY*          MOSUNNY   73  46  38 NE6       30.04F
MICHIGAN CITY* SUNNY     72  45  37 CALM      30.05F
KNOX*          SUNNY     72  36  26 CALM      30.05F
SOUTH BEND     SUNNY     70  43  37 CALM      30.06F
6HR MIN TEMP:  70; 6HR MAX TEMP:  72;

ELKHART*       SUNNY     70  41  35 W6        30.06F
GOSHEN         SUNNY     70  41  34 NW6       30.06S
6HR MIN TEMP:  69; 6HR MAX TEMP:  73;

MONTICELLO*    SUNNY     72  46  39 W3        30.06S
6HR MIN TEMP:  69; 6HR MAX TEMP:  74;

FORT WAYNE     MOSUNNY   70  48  45 W9        30.07F
6HR MIN TEMP:  68; 6HR MAX TEMP:  74;

PERU/GRISSOM   SUNNY     71  50  47 W6        30.05F
6HR MIN TEMP:  68; 6HR MAX TEMP:  73;


$$
INZ028>050-280100-
CENTRAL INDIANA

CITY           SKY/WX    TMP DP  RH WIND       PRES   REMARKS
LAFAYETTE      SUNNY     71  47  42 S3        30.06F
6HR MIN TEMP:  69; 6HR MAX TEMP:  73;

KOKOMO*        SUNNY     72  48  42 W8        30.09S
6HR MIN TEMP:  69; 6HR MAX TEMP:  73;

MUNCIE*        SUNNY     72  44  36 NW3       30.08F
6HR MIN TEMP:  70; 6HR MAX TEMP:  75;

INDIANAPOLIS   MOSUNNY   71  47  42 CALM      30.07F
6HR MIN TEMP:  70; 6HR MAX TEMP:  74;


$$
MIZ043>046-050>051-056>058-064>065-071>073-077>080-280100-
SOUTHWEST LOWER MICHIGAN

CITY           SKY/WX    TMP DP  RH WIND       PRES   REMARKS
BATTLE CREEK   SUNNY     69  45  41 W13       30.06S
6HR MIN TEMP:  69; 6HR MAX TEMP:  74;

BENTON HARBOR  SUNNY     71  42  35 SW6       30.05F
6HR MIN TEMP:  70; 6HR MAX TEMP:  72;

COLDWATER*     SUNNY     69  40  34 W6        30.06S
6HR MIN TEMP:  67; 6HR MAX TEMP:  73;

HILLSDALE*     MOSUNNY   68  41  37 W7        30.05S
HOLLAND        SUNNY     68  47  46 SW9       30.05F
6HR MIN TEMP:  68; 6HR MAX TEMP:  71;

GRAND RAPIDS   MOSUNNY   69  47  45 W8        30.04S
6HR MIN TEMP:  68; 6HR MAX TEMP:  72;

KALAMAZOO      SUNNY     70  41  34 W8        30.06S
6HR MIN TEMP:  69; 6HR MAX TEMP:  74;

STURGIS*       SUNNY     69  45  42 W6        30.06S
6HR MIN TEMP:  68; 6HR MAX TEMP:  73;

THREE RIVERS*  FAIR      69  42  37 NW8       30.07S
6HR MIN TEMP:  69; 6HR MAX TEMP:  73;


$$
OHZ001>008-015>018-024>025-280100-
NORTHWEST OHIO

CITY           SKY/WX    TMP DP  RH WIND       PRES   REMARKS
DEFIANCE       MOSUNNY   70  45  40 VRB5      30.05S
6HR MIN TEMP:  67; 6HR MAX TEMP:  72;

FINDLAY        MOSUNNY   68  47  46 SW6       30.06S
6HR MIN TEMP:  67; 6HR MAX TEMP:  73;

TOLEDO EXPRESS MOSUNNY   70  46  42 SW9       30.04R
6HR MIN TEMP:  68; 6HR MAX TEMP:  73;

TOLEDO METCALF PTSUNNY   72  45  37 W12       30.05S
6HR MIN TEMP:  70; 6HR MAX TEMP:  73;

LIMA           MOSUNNY   69  47  45 W9        30.08S
6HR MIN TEMP:  66; 6HR MAX TEMP:  71;


$$
AND FOR LAKE MICHIGAN COASTAL AND OPEN LAKE BUOY OBSERVATIONS

STATION/POSITION TEMP    WIND        PRES    VSBY  WAVE
                 AIR SEA DIR/SP/G                  HT/PER
                 (F)     (DEG/KT/KT) (MB)    (MI)  (FT/S)
CALUMET HARBOR    68      80/  9/ 12 1016.5F
MICHIGAN CITY     69      60/  6/  8   N/A
BURNS HARBOR      70      60/  7/  9 1017.6F
SOUTH LAKE BUOY   63 62  180/ 12/ 12 1017.3          1
4 MI NW BRIDGMAN  69 69  160/  2/  4 1017.6F         1
MICHIGAN CITY     67 66   80/  6/  8   N/A           1

$$
&&



USA.gov is the U.S. government's official web portal to all federal, state and local government web resources and services.